Wind_Speed
10 12 12 12 10 8 3 2 2 5 5 1 1 2 3 7 2 2 2 0 2 2 2 2 2 2 1 6 3 4 0 4 3 5 1 1 2 5 6 4 4 4 2 7
9 11 12 13 11 8 3 2 2 4 3 2 1 2 3 2 3 3 4 2 2 2 2 2 2 2 1 7 3 3 3 0 2 5 3 1 3 3 4 4 2 7 4 8
10 11 13 13 11 6 1 1 2 2 1 2 1 2 3 3 2 1 1 3 4 3 2 2 2 3 2 3 5 7 2 2 4 5 3 3 2 4 5 5 4 10 14 30
10 12 14 14 8 3 1 2 1 2 1 2 3 2 3 2 2 0 0 2 2 2 3 2 3 3 4 3 7 3 2 5 3 3 5 3 6 10 10 16 18 12 11 16
10 12 14 16 11 2 4 3 1 1 1 1 1 3 1 2 2 1 2 1 3 3 2 0 1 1 1 2 4 3 4 2 2 5 9 12 13 10 16 20 16 14 14 19
8 10 13 16 15 3 4 1 2 2 3 1 2 2 1 3 5 2 5 3 1 2 3 3 1 1 6 5 2 1 1 2 2 3 4 5 7 19 20 12 5 6 7 9
6 8 10 12 16 12 6 4 2 2 3 2 1 2 2 2 1 2 3 2 2 1 5 5 4 5 8 7 10 9 5 3 2 2 1 5 7 2 5 7 7 11 7 7
4 4 6 9 11 11 10 6 4 2 1 2 2 3 2 2 3 3 2 1 1 4 2 1 3 2 4 6 9 11 11 4 2 2 4 7 11 9 5 7 4 6 6 5
1 2 3 3 5 7 7 9 5 4 3 3 1 1 0 1 2 5 3 4 6 1 1 1 3 4 4 4 2 6 9 10 5 2 3 5 6 3 2 2 5 6 3 6
1 1 2 3 3 3 3 2 3 3 2 3 3 1 2 2 2 1 3 5 6 3 1 4 4 4 4 4 5 5 5 3 11 9 7 6 11 6 1 3 4 2 2 6
2 1 2 3 3 4 3 2 2 2 2 4 6 4 4 1 1 2 3 3 2 2 1 2 3 3 4 2 5 6 8 7 5 5 7 9 4 2 6 2 3 2 5 4
2 3 4 5 8 6 5 3 6 7 2 4 6 12 11 11 13 4 2 3 2 3 0 1 2 2 3 2 3 2 5 6 5 8 6 2 2 3 9 3 8 6 5 8
4 5 6 7 8 7 7 4 6 3 1 4 2 4 3 9 15 18 3 2 5 3 4 3 2 4 3 3 5 3 3 2 3 4 1 5 8 14 11 3 8 8 6 8
2 5 6 7 9 8 6 8 10 6 4 1 5 7 10 7 9 16 22 18 3 2 2 3 3 3 5 4 7 10 8 4 8 18 16 11 18 15 17 16 9 9 6 6
3 5 7 8 9 7 5 9 12 13 6 2 3 10 30 23 19 20 20 18 7 2 3 3 4 3 4 5 4 12 9 15 12 17 13 15 20 23 11 9 12 8 8 18
4 6 7 7 6 3 3 2 2 14 18 2 2 5 10 2 6 15 16 15 4 4 3 3 5 5 3 4 13 16 16 18 22 21 21 24 25 22 18 17 19 18 14 13
7 8 9 8 6 8 3 3 1 3 11 1 3 4 4 4 3 2 1 7 3 3 3 5 7 7 9 9 19 16 18 16 17 23 24 23 27 17 14 7 14 16 15 15
5 5 8 8 4 4 6 12 10 7 4 3 2 4 4 2 2 2 4 3 4 4 4 2 7 3 7 9 21 19 20 21 24 27 22 24 27 17 18 15 9 9 11 7
4 4 2 3 2 3 1 5 4 17 5 2 2 3 4 1 2 2 2 4 5 4 7 6 5 6 10 19 20 21 23 20 24 20 20 24 23 22 19 15 8 9 13 7
3 1 1 1 1 2 3 1 3 1 1 2 3 1 3 2 2 2 2 2 3 3 6 4 6 13 25 22 23 21 20 16 14 18 19 14 12 17 18 18 15 14 14 7
2 3 1 1 1 0 5 2 1 2 3 2 3 5 3 2 4 4 4 2 3 3 5 6 4 5 7 9 15 17 18 17 22 21 20 11 13 13 11 10 9 7 9 7
0 1 0 1 4 3 4 2 3 3 3 2 3 4 5 3 3 3 3 3 3 6 2 4 3 2 11 10 9 11 12 12 14 17 18 12 11 10 7 5 7 9 14 11
1 2 2 2 3 4 4 3 4 2 2 3 1 3 3 3 4 3 4 5 6 1 3 3 1 10 14 14 11 13 12 13 7 7 7 9 7 5 6 5 7 11 11 10
2 3 2 4 3 5 5 4 3 4 2 3 2 3 2 2 2 3 5 5 2 4 2 5 6 16 16 13 11 11 14 13 7 5 6 7 8 5 6 7 8 11 9 8
3 3 3 5 4 2 4 2 2 3 2 0 3 3 2 3 4 3 4 4 2 4 4 6 11 18 13 12 11 10 9 9 7 5 6 7 8 7 8 7 8 11 11 11
3 1 1 2 2 3 2 2 3 3 1 1 1 3 3 4 3 4 3 3 3 4 7 10 12 16 14 12 10 8 6 6 4 5 6 8 8 8 9 15 15 16 16 17
3 4 2 1 1 4 3 3 3 2 2 2 1 3 7 4 3 3 3 2 5 10 10 10 15 13 13 10 8 6 6 4 6 8 10 12 14 15 15 12 15 21 22 25
Wind_Direction
32 25 20 13 20 10 360 348 351 349 169 110 153 209 248 325 343 316 327 220 166 229 334 312 285 207 7 327 176 149 28 129 184 202 54 307 178 181 150 147 220 228 233 268
19 12 13 9 19 24 346 50 319 10 214 195 207 240 269 282 318 17 10 312 59 69 169 243 250 326 111 7 33 80 185 119 57 353 4 44 207 194 140 97 101 189 222 263
34 24 17 5 9 12 37 75 302 324 210 92 170 232 252 242 285 58 255 285 320 76 326 235 286 336 36 16 21 28 28 148 175 191 175 144 208 205 205 184 207 269 240 278
43 28 18 11 8 0 136 18 342 18 325 69 26 335 321 276 238 34 32 278 191 163 222 292 197 5 341 58 357 40 113 218 186 244 276 269 236 252 240 242 252 244 270 280
50 32 25 15 8 78 94 126 180 39 320 310 285 162 275 283 299 293 156 215 184 171 216 255 343 13 28 324 0 50 3 256 213 267 243 244 256 255 246 251 257 260 263 274
53 41 31 22 24 51 99 51 62 139 282 261 78 205 50 6 344 56 60 1 278 216 279 349 322 294 288 263 290 322 229 193 164 246 242 325 279 244 237 242 182 196 218 237
59 38 35 31 32 48 101 83 102 74 257 252 213 12 18 349 28 319 320 92 353 8 321 292 260 235 242 240 244 206 201 172 183 266 332 245 247 255 199 192 223 209 252 284
76 50 31 31 31 44 76 63 95 108 258 245 335 347 304 308 277 250 250 306 87 315 307 297 318 321 335 260 225 222 210 155 213 214 223 309 310 285 154 172 260 209 192 243
231 328 334 7 19 23 57 62 77 95 119 274 210 265 327 284 314 330 333 329 329 343 189 163 210 228 219 270 230 353 186 210 208 146 232 245 245 288 186 102 307 140 140 271
213 328 305 304 310 299 19 60 47 96 112 253 160 185 217 135 107 277 305 343 346 13 193 218 209 226 211 223 214 184 154 181 213 222 242 266 268 246 211 108 244 181 232 264
152 294 307 310 300 279 250 216 185 154 169 268 199 203 175 113 132 156 278 11 338 332 237 234 242 226 236 257 225 186 174 183 197 207 223 262 229 89 186 205 333 286 295 278
200 253 276 284 278 258 241 229 219 219 212 251 264 258 261 242 229 166 205 206 204 234 277 240 335 324 304 203 256 290 246 201 195 195 210 227 306 280 278 247 278 279 266 304
241 258 271 286 289 267 227 231 189 154 233 275 312 262 290 253 240 235 171 236 211 224 184 188 238 232 155 219 233 268 278 261 231 318 182 277 311 307 300 274 232 253 263 279
296 300 292 284 283 284 242 224 220 210 148 206 278 264 266 246 232 230 222 231 186 166 159 188 208 199 199 215 244 238 235 288 289 276 284 286 273 265 265 272 285 277 279 252
301 294 289 278 280 284 261 253 254 226 180 214 269 308 284 276 256 242 231 223 224 176 232 215 233 241 236 235 244 248 211 232 235 253 249 257 269 272 268 283 280 280 300 297
289 286 281 276 279 260 184 324 281 233 218 264 265 265 273 356 236 236 230 219 207 185 186 230 228 228 228 241 253 250 229 226 234 252 252 253 264 277 275 273 275 280 276 267
283 275 271 278 274 209 189 202 223 107 168 278 299 288 274 288 237 264 256 189 199 194 220 214 231 219 212 239 256 252 244 245 239 241 248 257 257 250 266 240 261 268 265 265
296 287 263 259 254 229 244 251 236 186 156 203 245 262 325 189 280 264 182 192 202 215 235 232 232 243 232 250 249 258 252 245 241 243 240 244 256 260 255 256 254 255 262 266
304 298 284 197 175 213 232 310 249 208 210 240 180 183 264 46 256 251 284 200 218 215 217 221 195 217 228 245 247 246 246 234 245 246 241 243 247 254 253 245 240 236 261 251
329 232 112 22 209 265 280 352 35 262 281 295 230 157 267 129 306 274 286 233 229 245 223 172 220 241 246 254 257 262 264 254 239 239 243 235 237 239 244 243 243 242 251 239
53 46 188 323 285 354 34 28 211 323 307 241 248 192 239 233 200 244 219 268 268 261 237 193 234 262 261 284 260 264 272 272 256 237 237 219 221 233 232 241 228 225 223 217
82 82 45 37 37 37 75 272 320 208 244 243 207 228 205 260 208 246 202 244 256 255 194 236 239 35 334 325 314 292 280 270 256 243 219 204 208 204 218 219 213 225 227 199
199 93 62 66 317 38 142 240 281 291 236 252 311 292 226 315 221 241 228 235 233 269 233 253 77 341 336 330 326 322 318 313 249 163 168 178 172 205 248 235 226 184 156 156
180 140 241 172 287 238 197 197 201 241 228 266 222 249 230 251 272 231 261 232 272 272 258 19 333 334 327 322 326 333 338 348 7 107 142 133 127 140 119 114 134 130 131 151
215 164 224 216 231 243 233 235 320 245 230 292 314 282 242 255 255 247 250 247 282 30 2 307 319 315 322 326 330 334 341 344 4 29 83 100 114 107 88 92 107 116 127 134
167 159 180 220 37 282 309 206 254 237 231 306 277 269 278 253 248 238 259 9 39 335 318 309 310 313 322 323 325 329 338 345 27 47 69 89 89 95 96 87 91 101 111 101
168 242 245 196 249 221 217 167 235 186 76 244 73 289 233 307 274 283 19 35 320 312 312 309 309 311 316 317 318 344 351 11 41 65 69 82 97 99 90 83 76 85 86 91
Height
838 837 834 831 827 828 829 826 835 827 826 827 825 825 826 814 810 809 807 807 805 807 806 808 807 805 805 807 803 805 806 820 824 812 814 813 812 817 825 837 844 839 845 795
838 838 835 834 827 826 828 828 829 827 827 823 824 827 824 820 816 814 813 811 807 808 810 811 811 807 809 808 803 807 807 821 837 821 818 816 813 818 820 830 838 830 840 780
837 837 833 833 830 829 831 831 833 828 826 827 827 826 823 822 819 818 818 819 812 812 814 811 812 811 810 809 811 807 808 820 818 824 809 811 812 814 818 816 834 804 802 774
836 836 834 831 828 829 832 835 837 834 831 827 827 829 827 823 820 821 822 819 816 816 819 818 814 818 816 814 815 815 814 815 822 818 818 817 813 809 810 808 797 809 794 793
835 837 834 831 828 826 830 835 834 836 835 832 829 827 828 824 823 822 822 823 822 822 821 818 820 822 822 821 817 819 821 820 821 816 817 815 811 810 804 795 795 799 801 795
837 837 835 835 830 827 830 833 834 836 838 835 834 832 828 827 827 825 825 825 822 821 819 821 822 825 824 822 822 822 823 826 823 818 817 816 812 792 786 782 794 796 801 783
838 839 836 837 835 832 832 830 834 842 846 834 833 830 830 828 831 829 828 828 827 827 824 822 820 823 822 823 821 820 822 826 826 825 822 822 782 777 778 781 783 788 785 783
835 837 838 838 839 836 836 833 833 842 858 841 835 835 833 832 832 832 828 827 828 827 825 825 823 821 818 812 814 816 815 822 828 828 831 808 786 769 779 779 769 772 781 779
836 836 838 838 838 841 837 835 834 837 851 850 839 838 837 839 839 836 830 828 827 825 826 824 832 823 816 813 811 818 813 813 817 832 824 816 783 768 769 768 772 771 770 776
836 835 837 839 838 840 838 838 835 836 850 841 838 841 842 838 840 841 838 834 830 828 829 826 826 825 816 817 809 818 813 812 809 811 808 802 781 771 768 782 776 769 771 774
831 834 836 838 839 839 838 838 836 836 842 838 835 834 837 838 839 843 838 839 840 835 838 829 823 823 821 818 811 813 813 816 811 807 804 797 771 772 775 770 770 770 770 767
828 832 834 834 837 838 837 836 835 836 838 838 833 830 831 832 831 836 837 837 837 834 840 830 829 819 825 824 819 804 806 800 804 800 786 774 774 771 769 770 771 769 767 763
828 829 831 833 835 836 835 834 834 836 838 835 833 826 826 825 826 828 834 834 830 830 830 835 835 841 827 830 817 804 793 793 796 788 772 773 771 768 766 767 768 763 762 760
826 827 829 830 833 833 832 832 832 833 834 841 830 822 820 819 819 820 822 823 824 825 827 833 834 833 817 822 807 801 795 793 790 777 775 775 765 765 761 759 759 758 756 755
824 825 827 830 830 829 829 828 827 828 832 832 830 821 812 810 811 813 814 816 818 824 824 827 822 813 813 806 803 783 790 788 789 768 772 768 758 753 756 757 754 752 753 745
823 824 826 827 827 826 827 826 824 824 827 828 826 819 808 806 806 807 807 808 814 816 815 814 808 805 807 802 776 766 772 771 764 761 763 757 750 750 748 751 747 745 745 741
822 823 823 824 824 825 825 826 823 822 825 827 827 821 807 803 803 804 804 805 806 808 806 801 798 794 788 779 764 761 755 758 757 752 752 754 744 742 737 743 739 738 736 735
819 818 819 820 822 821 821 820 821 821 823 825 820 823 815 803 809 808 799 803 802 798 791 788 784 783 780 764 737 742 740 742 743 737 738 735 728 734 733 734 734 733 731 729
817 817 817 818 819 820 819 818 817 818 823 817 824 826 825 804 803 801 798 794 793 784 780 772 777 770 755 723 723 721 718 723 718 723 724 722 724 723 724 726 726 727 724 723
815 816 816 819 818 818 818 817 819 818 815 812 812 813 817 805 798 799 794 791 781 788 761 760 756 733 714 712 709 706 706 708 710 712 711 714 714 714 714 713 715 715 714 715
815 816 819 818 817 817 820 832 822 829 827 814 806 811 807 797 802 793 788 781 775 762 745 745 728 709 702 702 701 700 700 697 693 693 691 699 701 704 705 706 707 707 707 709
816 817 817 818 820 827 833 847 836 827 814 807 804 802 801 795 788 786 783 777 766 753 739 728 708 706 709 706 702 698 693 688 682 678 681 689 693 695 698 698 700 700 700 704
816 817 819 821 833 839 839 844 833 834 814 807 806 805 796 789 784 779 774 762 751 734 729 712 710 715 710 704 699 692 686 677 668 670 677 682 687 689 693 695 695 696 698 701
815 822 828 830 853 831 824 821 817 809 806 804 803 799 798 786 783 771 758 745 738 721 707 713 717 718 712 706 700 694 686 680 675 674 677 681 686 691 693 692 694 694 698 702
813 815 822 827 815 820 817 815 813 804 800 801 799 795 790 784 777 764 750 736 720 724 733 732 727 722 713 708 703 699 694 689 685 683 683 687 690 692 694 697 697 698 702 705
812 816 816 814 820 816 816 815 810 799 797 795 796 791 789 774 764 752 733 729 738 743 743 738 730 721 714 711 707 702 698 695 691 689 690 691 693 695 699 700 702 703 705 707
811 807 804 806 807 806 805 805 802 796 798 804 805 795 787 779 768 743 748 752 755 750 743 736 730 722 716 712 708 704 702 700 697 695 696 697 699 701 702 705 709 709 711 713